W4BRM Weather Reports


time (UTC)temp
C
wind
direction
speed
KPH
gust
KPH
rain 1hr
cm
rain 24hr
cm
rain mn
cm
humidity
%
barometer
mb
20260504130407 13 347 0.0 0.0 0.00 0.00 0.00 56 1012.0
20260504110350 12 345 526.3 0.0 0.00 0.00 0.00 1012.6
20260504100357 -17 0.0 0.0 0.00 0.00 0.00 1012.2
20260504080347 12 345 0.0 0.0 0.00 0.00 0.00 37 1012.6
20260504070350 11 345 0.0 0.0 0.00 0.00 0.00 43 1012.7
20260504050340 12 345 0.0 0.0 0.00 0.00 0.00 38 1013.3
20260504043341 12 345 0.0 0.0 0.00 0.00 0.00 38 1013.3
20260504040349 12 345 0.0 0.0 0.00 0.00 0.00 32 1013.0
20260504033348 12 345 0.0 0.0 0.00 0.00 0.00 33 1013.1
20260504030352 12 345 0.0 0.0 0.00 0.00 0.00 33 1013.2
20260504023355 13 345 0.0 0.0 0.00 0.00 0.00 32 1013.0
20260504020343 13 345 0.0 0.0 0.00 0.00 0.00 33 1012.7
20260504013344 12 345 0.0 0.0 0.00 0.00 0.00 34 1012.5
20260504010343 12 345 0.0 0.0 0.00 0.00 0.00 35 1012.2
20260504003342 12 345 0.0 0.0 0.00 0.00 0.00 36 1012.2
20260504000348 12 345 0.0 0.0 0.00 0.00 0.00 38 1012.1
20260503233407 13 345 0.0 0.0 0.00 0.00 0.00 35 1011.7
20260503230345 14 345 0.0 0.0 0.00 0.00 0.00 32 1011.6
20260503223404 14 345 0.0 0.0 0.00 0.00 0.00 32 1011.7
20260503220346 14 345 0.0 0.0 0.00 0.00 0.00 33 1011.9
20260503213409 14 345 0.0 1.6 0.00 0.00 0.00 31 1011.6
20260503210412 13 345 0.0 1.6 0.00 0.00 0.00 31 1011.7
20260503203354 13 345 0.0 3.2 0.00 0.00 0.00 32 1012.0
20260503200340 13 347 0.0 1.6 0.00 0.00 0.00 32 1012.1
20260503193341 13 349 0.0 6.4 0.00 0.00 0.00 32 1012.5
20260503190403 12 349 0.0 20.9 0.00 0.00 0.00 34 1012.9
20260503183344 12 350 0.0 1.6 0.00 0.00 0.00 37 1013.1
20260503180351 12 350 0.0 6.4 0.00 0.00 0.00 38 1013.2
20260503173353 11 351 0.0 3.2 0.00 0.00 0.00 39 1013.6
20260503170341 10 350 0.0 4.8 0.00 0.00 0.00 43 1013.8
20260503150352 8 352 0.0 0.0 0.00 0.00 0.00 51 1014.5